sat.trackr.live / text

‹ back to catalog

STARLINK-37282

NORAD 69190 · 2026-114J

PAYLOAD ACTIVE UNKNOWN

§ Identity

Operator
Country
US
Launch date
2026-05-25
Launch site
AFETR
Launch vehicle
Mass (kg)
RCS (m²)

Purposes: comms

External: N2YO · Heavens-Above · Gunter

§ Orbital elements

Epoch: 2026-09-19T23:23:03.001056Z

Period
93.85 min
Inclination
53.1574°
Eccentricity
0.0001375
Mean motion
15.34404360 rev/d
Perigee alt
461.7 km
Apogee alt
463.6 km
Semi-major
6,840.8 km
B*
2.8307e-4
RAAN
116.3103°
Arg perigee
85.2422°
Mean anomaly
274.8737°
Rev number
1,936

§ Raw data

STARLINK-372821 69190U 26114J   26262.97434029  .00009201  00000+0  28307-3 0  99992 69190  53.1574 116.3103 0001375  85.2422 274.8737 15.34404360 19363

JSON: /api/v1/satellites/69190 · /tle

For live sub-satellite position, see the globe view (requires WebGL).

§ Visibility from observer

Set your observer location to see the next 7 days of passes ≥ 10°. The values pass through the URL so the page stays shareable.

No JS? Fill the form by hand. The geolocation button needs JavaScript.